ZIYUAN 3-2 (ZY 3-2)

Last updated on Wed Dec 17 2025 00:02:34 GMT+0000 (Coordinated Universal Time)

1 41556U 16033A 25350.33773644 .00005089 00000+0 23156-3 0 9997 2 41556 97.4044 64.4463 0010782 232.7659 127.2593 15.21109566530182

Satellite not in orbit

ZIYUAN 3-2 (ZY 3-2)